Location: Clarion
(42.7316°N, 93.7330°W)
Time: 08:57:38
(UTC+00:00)

Cosmos 2218 Rocket - Pass Details

Date: 22 April 2026
Orbit: 956 x 1005 km, 82.9° (Epoch: 17 May)

Event Time Altitude Azimuth Distance (km) Brightness Sun altitude
Rises 02:11:18 0° 194° (SSW) 3,620 6.8 -12.1°
Reaches altitude 10° 02:13:48 10° 197° (SSW) 2,677 6.2 -12.5°
Maximum altitude 02:19:53 66° 280° (W) 1,038 4.4 -13.5°
Drops below altitude 10° 02:26:01 10° 2° (N) 2,704 6.7 -14.4°
Sets 02:28:34 0° 6° (N) 3,659 7.4 -14.8°
